{"data":{"norad_id":62498,"epoch":"2026-05-25T04:53:39.813792Z","epoch_age_seconds":53605,"freshness":"FRESH","line1":"1 62498U 25003M   26145.20393303  .00018212  00000+0  66954-3 0  9996","line2":"2 62498  42.9996 216.8380 0001319 276.4779  83.5922 15.27587757 78327","mean_motion":15.27587757,"eccentricity":0.0001319,"inclination_deg":42.9996,"raan_deg":216.838,"arg_perigee_deg":276.4779,"mean_anomaly_deg":83.5922,"bstar":0.00066954,"rev_number":7832,"period_min":94.266270032694,"perigee_km":482.12088150697,"apogee_km":483.93085627178,"semimajor_km":6861.1628688894,"source":"CELESTRAK","updated_at":"2026-05-25T13:38:19.698476Z"}}